| time (UTC) | temp C | wind direction | speed KPH | gust KPH | rain 1hr cm | rain 24hr cm | rain mn cm | humidity % | barometer mb |
| 20260507031120 | 13 | 113 | 0.0 | 0.0 | 0.00 | 0.00 | 0.18 | 96 | 1002.0 |
| 20260507030622 | 13 | 248 | 0.0 | 1.6 | 0.00 | 0.00 | 0.18 | 96 | 1002.0 |
| 20260507030120 | 13 | 158 | 0.0 | 0.0 | 0.00 | 0.00 | 0.18 | 96 | 1002.0 |
| 20260507025621 | 13 | 293 | 0.0 | 1.6 | 0.00 | 0.00 | 0.18 | 96 | 1002.0 |
| 20260507025121 | 13 | 270 | 1.6 | 3.2 | 0.00 | 0.00 | 0.18 | 96 | 1002.0 |
| 20260507024620 | 13 | 90 | 0.0 | 0.0 | 0.00 | 0.00 | 0.18 | 96 | 1002.0 |
| 20260507024120 | 13 | 338 | 0.0 | 0.0 | 0.00 | 0.00 | 0.18 | 96 | 1002.0 |
| 20260507023621 | 13 | 270 | 3.2 | 6.4 | 0.00 | 0.00 | 0.18 | 96 | 1002.0 |
| 20260507023120 | 13 | 23 | 0.0 | 0.0 | 0.00 | 0.00 | 0.18 | 96 | 1002.0 |
| 20260507022620 | 13 | 113 | 3.2 | 4.8 | 0.00 | 0.00 | 0.18 | 96 | 1002.0 |
| 20260507022120 | 13 | 68 | 0.0 | 1.6 | 0.00 | 0.00 | 0.18 | 96 | 1002.0 |
| 20260507021620 | 13 | 90 | 0.0 | 1.6 | 0.00 | 0.00 | 0.18 | 96 | 1002.0 |
| 20260507021120 | 13 | 68 | 0.0 | 0.0 | 0.00 | 0.00 | 0.18 | 96 | 1002.0 |
| 20260507020621 | 13 | 135 | 1.6 | 3.2 | 0.00 | 0.00 | 0.18 | 96 | 1002.0 |
| 20260507020120 | 13 | 293 | 1.6 | 3.2 | 0.00 | 0.00 | 0.18 | 96 | 1002.0 |
| 20260507015621 | 13 | 68 | 0.0 | 0.0 | 0.00 | 0.00 | 0.18 | 96 | 1002.0 |
| 20260507015120 | 13 | 248 | 0.0 | 0.0 | 0.00 | 0.00 | 0.18 | 96 | 1002.0 |
| 20260507014621 | 13 | 248 | 4.8 | 8.0 | 0.00 | 0.00 | 0.18 | 96 | 1002.0 |
| 20260507014121 | 13 | 135 | 0.0 | 1.6 | 0.00 | 0.00 | 0.18 | 96 | 1002.0 |
| 20260507013620 | 13 | 338 | 0.0 | 0.0 | 0.00 | 0.00 | 0.18 | 96 | 1002.0 |
| 20260507013120 | 13 | 315 | 4.8 | 6.4 | 0.00 | 0.00 | 0.18 | 96 | 1002.0 |
| 20260507012620 | 13 | 68 | 0.0 | 1.6 | 0.00 | 0.00 | 0.18 | 96 | 1003.0 |
| 20260507012120 | 13 | 203 | 1.6 | 1.6 | 0.00 | 0.00 | 0.18 | 96 | 1003.0 |
| 20260507011620 | 13 | 248 | 0.0 | 0.0 | 0.00 | 0.00 | 0.18 | 96 | 1002.0 |
| 20260507011120 | 13 | 90 | 3.2 | 4.8 | 0.00 | 0.00 | 0.18 | 95 | 1002.0 |
| 20260507010621 | 13 | 338 | 0.0 | 1.6 | 0.00 | 0.00 | 0.18 | 95 | 1003.0 |
| 20260507010120 | 13 | 180 | 4.8 | 9.7 | 0.00 | 0.00 | 0.18 | 95 | 1003.0 |
| 20260507005620 | 13 | 180 | 8.0 | 11.3 | 0.00 | 0.00 | 0.18 | 95 | 1003.0 |
| 20260507005120 | 13 | 68 | 1.6 | 4.8 | 0.00 | 0.00 | 0.18 | 95 | 1003.0 |
| 20260507004622 | 13 | 158 | 3.2 | 4.8 | 0.00 | 0.00 | 0.18 | 95 | 1002.0 |
| 20260507004121 | 12 | 23 | 3.2 | 4.8 | 0.00 | 0.00 | 0.18 | 95 | 1002.0 |
| 20260507003620 | 12 | 270 | 1.6 | 3.2 | 0.00 | 0.00 | 0.18 | 95 | 1003.0 |
| 20260507003120 | 12 | 338 | 0.0 | 3.2 | 0.00 | 0.00 | 0.18 | 95 | 1002.0 |
| 20260507002620 | 12 | 248 | 0.0 | 0.0 | 0.00 | 0.00 | 0.18 | 95 | 1002.0 |
| 20260507002120 | 12 | 293 | 0.0 | 1.6 | 0.00 | 0.00 | 0.18 | 95 | 1002.0 |
| 20260507001620 | 12 | 270 | 4.8 | 4.8 | 0.00 | 0.00 | 0.18 | 95 | 1003.0 |
| 20260507001121 | 12 | 248 | 6.4 | 11.3 | 0.00 | 0.00 | 0.18 | 95 | 1002.0 |
| 20260507000620 | 12 | 248 | 0.0 | 0.0 | 0.00 | 0.00 | 0.18 | 95 | 1002.0 |
| 20260507000120 | 12 | 270 | 4.8 | 8.0 | 0.00 | 0.00 | 0.18 | 95 | 1002.0 |
| 20260506235620 | 12 | 248 | 0.0 | 1.6 | 0.03 | 0.00 | 0.18 | 95 | 1002.0 |
| 20260506235120 | 12 | 23 | 0.0 | 0.0 | 0.03 | 0.00 | 0.18 | 95 | 1002.0 |
| 20260506234620 | 12 | 45 | 1.6 | 3.2 | 0.03 | 0.00 | 0.18 | 95 | 1002.0 |
| 20260506234120 | 12 | 135 | 4.8 | 4.8 | 0.03 | 0.00 | 0.18 | 95 | 1002.0 |
| 20260506233620 | 12 | 23 | 4.8 | 6.4 | 0.03 | 0.00 | 0.18 | 95 | 1002.0 |
| 20260506233121 | 12 | 45 | 1.6 | 3.2 | 0.03 | 0.00 | 0.18 | 95 | 1002.0 |
| 20260506232620 | 12 | 68 | 0.0 | 0.0 | 0.00 | 0.00 | 0.15 | 94 | 1002.0 |
| 20260506232121 | 12 | 45 | 1.6 | 3.2 | 0.00 | 0.00 | 0.15 | 94 | 1002.0 |
| 20260506231621 | 13 | 248 | 1.6 | 3.2 | 0.00 | 0.00 | 0.15 | 94 | 1002.0 |
| 20260506231120 | 13 | 248 | 3.2 | 3.2 | 0.00 | 0.00 | 0.15 | 94 | 1003.0 |
| 20260506230620 | 13 | 0 | 3.2 | 4.8 | 0.00 | 0.00 | 0.15 | 94 | 1003.0 |
| 20260506230120 | 13 | 293 | 1.6 | 3.2 | 0.00 | 0.00 | 0.15 | 94 | 1003.0 |
| 20260506225620 | 13 | 315 | 0.0 | 0.0 | 0.05 | 0.00 | 0.15 | 94 | 1003.0 |
| 20260506225120 | 13 | 225 | 3.2 | 4.8 | 0.03 | 0.00 | 0.13 | 94 | 1002.0 |
| 20260506224620 | 13 | 90 | 3.2 | 4.8 | 0.03 | 0.00 | 0.13 | 94 | 1002.0 |
| 20260506224120 | 13 | 338 | 1.6 | 3.2 | 0.03 | 0.00 | 0.13 | 94 | 1002.0 |
| 20260506223620 | 13 | 338 | 3.2 | 4.8 | 0.03 | 0.00 | 0.13 | 94 | 1003.0 |
| 20260506223120 | 13 | 113 | 1.6 | 4.8 | 0.03 | 0.00 | 0.13 | 94 | 1002.0 |
| 20260506222620 | 13 | 68 | 1.6 | 4.8 | 0.03 | 0.00 | 0.13 | 94 | 1003.0 |
| 20260506222120 | 13 | 338 | 3.2 | 4.8 | 0.03 | 0.00 | 0.13 | 94 | 1002.0 |
| 20260506221620 | 13 | 90 | 1.6 | 3.2 | 0.03 | 0.00 | 0.13 | 94 | 1003.0 |
| 20260506221120 | 13 | 315 | 6.4 | 9.7 | 0.03 | 0.00 | 0.13 | 93 | 1003.0 |
| 20260506220620 | 13 | 315 | 1.6 | 3.2 | 0.00 | 0.00 | 0.10 | 93 | 1003.0 |
| 20260506220122 | 13 | 90 | 4.8 | 9.7 | 0.00 | 0.00 | 0.10 | 93 | 1003.0 |
| 20260506215621 | 13 | 293 | 4.8 | 4.8 | 0.03 | 0.00 | 0.05 | 92 | 1003.0 |
| 20260506215119 | 13 | 248 | 3.2 | 4.8 | 0.03 | 0.00 | 0.05 | 92 | 1003.0 |
| 20260506214620 | 14 | 248 | 0.0 | 1.6 | 0.03 | 0.00 | 0.05 | 91 | 1003.0 |
| 20260506214120 | 14 | 270 | 4.8 | 6.4 | 0.00 | 0.00 | 0.03 | 91 | 1003.0 |
| 20260506213620 | 14 | 0 | 0.0 | 1.6 | 0.00 | 0.00 | 0.03 | 90 | 1003.0 |
| 20260506213120 | 14 | 113 | 0.0 | 3.2 | 0.00 | 0.00 | 0.03 | 91 | 1003.0 |
| 20260506212620 | 14 | 315 | 1.6 | 4.8 | 0.00 | 0.00 | 0.03 | 91 | 1003.0 |
| 20260506212120 | 14 | 338 | 0.0 | 0.0 | 0.00 | 0.00 | 0.03 | 91 | 1003.0 |
| 20260506211620 | 14 | 315 | 1.6 | 3.2 | 0.00 | 0.00 | 0.03 | 91 | 1003.0 |
| 20260506211120 | 14 | 180 | 4.8 | 6.4 | 0.00 | 0.00 | 0.03 | 91 | 1003.0 |
| 20260506210621 | 14 | 270 | 4.8 | 4.8 | 0.00 | 0.00 | 0.03 | 91 | 1003.0 |
| 20260506210122 | 14 | 270 | 1.6 | 3.2 | 0.00 | 0.00 | 0.03 | 91 | 1003.0 |
| 20260506205620 | 14 | 90 | 6.4 | 9.7 | 0.00 | 0.00 | 0.03 | 90 | 1003.0 |
| 20260506205120 | 15 | 0 | 1.6 | 3.2 | 0.00 | 0.00 | 0.03 | 90 | 1003.0 |
| 20260506204621 | 15 | 68 | 6.4 | 11.3 | 0.00 | 0.00 | 0.03 | 89 | 1003.0 |
| 20260506204121 | 15 | 338 | 3.2 | 4.8 | 0.00 | 0.00 | 0.03 | 89 | 1003.0 |
| 20260506203622 | 15 | 203 | 4.8 | 9.7 | 0.00 | 0.00 | 0.03 | 89 | 1003.0 |
| 20260506203120 | 15 | 270 | 4.8 | 6.4 | 0.00 | 0.00 | 0.03 | 89 | 1003.0 |
| 20260506202621 | 15 | 293 | 1.6 | 4.8 | 0.00 | 0.00 | 0.03 | 89 | 1003.0 |
| 20260506202121 | 15 | 338 | 3.2 | 4.8 | 0.00 | 0.00 | 0.03 | 88 | 1003.0 |
| 20260506201621 | 15 | 293 | 4.8 | 8.0 | 0.00 | 0.00 | 0.03 | 87 | 1003.0 |
| 20260506201122 | 16 | 0 | 4.8 | 6.4 | 0.00 | 0.00 | 0.03 | 87 | 1003.0 |
| 20260506200620 | 16 | 315 | 1.6 | 3.2 | 0.00 | 0.00 | 0.03 | 87 | 1003.0 |
| 20260506200121 | 16 | 225 | 6.4 | 11.3 | 0.00 | 0.00 | 0.03 | 87 | 1003.0 |
| 20260506195621 | 16 | 225 | 4.8 | 6.4 | 0.00 | 0.00 | 0.00 | 87 | 1003.0 |
| 20260506195120 | 16 | 23 | 0.0 | 1.6 | 0.00 | 0.00 | 0.00 | 84 | 1003.0 |
| 20260506194619 | 16 | 338 | 3.2 | 4.8 | 0.00 | 0.00 | 0.00 | 84 | 1003.0 |
| 20260506194121 | 16 | 270 | 0.0 | 0.0 | 0.00 | 0.00 | 0.00 | 83 | 1003.0 |
| 20260506193621 | 16 | 0 | 4.8 | 4.8 | 0.00 | 0.00 | 0.00 | 82 | 1004.0 |
| 20260506193120 | 16 | 248 | 3.2 | 4.8 | 0.00 | 0.00 | 0.00 | 79 | 1004.0 |
| 20260506192621 | 17 | 68 | 0.0 | 3.2 | 0.00 | 0.00 | 0.00 | 79 | 1004.0 |
| 20260506192120 | 17 | 158 | 0.0 | 0.0 | 0.00 | 0.00 | 0.00 | 78 | 1003.0 |
| 20260506191620 | 17 | 293 | 11.3 | 20.9 | 0.00 | 0.00 | 0.00 | 74 | 1004.0 |
| 20260506191120 | 17 | 113 | 1.6 | 3.2 | 0.00 | 0.00 | 0.00 | 72 | 1004.0 |
| 20260506190620 | 17 | 248 | 9.7 | 16.1 | 0.00 | 0.00 | 0.00 | 71 | 1004.0 |
| 20260506190124 | 17 | 270 | 1.6 | 3.2 | 0.00 | 0.00 | 0.00 | 71 | 1004.0 |
| 20260506185620 | 18 | 315 | 3.2 | 4.8 | 0.00 | 0.00 | 0.00 | 71 | 1004.0 |
| 20260506185120 | 18 | 293 | 3.2 | 8.0 | 0.00 | 0.00 | 0.00 | 71 | 1004.0 |
| 20260506184621 | 18 | 338 | 1.6 | 3.2 | 0.00 | 0.00 | 0.00 | 70 | 1004.0 |
| 20260506184120 | 18 | 203 | 3.2 | 4.8 | 0.00 | 0.00 | 0.00 | 69 | 1003.0 |
| 20260506183621 | 18 | 315 | 6.4 | 8.0 | 0.00 | 0.00 | 0.00 | 69 | 1004.0 |
| 20260506183121 | 18 | 338 | 6.4 | 11.3 | 0.00 | 0.00 | 0.00 | 68 | 1004.0 |
| 20260506182621 | 18 | 158 | 6.4 | 9.7 | 0.00 | 0.00 | 0.00 | 69 | 1004.0 |
| 20260506182121 | 18 | 270 | 3.2 | 4.8 | 0.00 | 0.00 | 0.00 | 68 | 1004.0 |
| 20260506181620 | 18 | 315 | 3.2 | 4.8 | 0.00 | 0.00 | 0.00 | 67 | 1004.0 |
| 20260506181120 | 18 | 158 | 4.8 | 6.4 | 0.00 | 0.00 | 0.00 | 67 | 1004.0 |
| 20260506180620 | 19 | 338 | 3.2 | 4.8 | 0.00 | 0.00 | 0.00 | 68 | 1004.0 |
| 20260506180120 | 19 | 23 | 3.2 | 4.8 | 0.00 | 0.00 | 0.00 | 67 | 1004.0 |
| 20260506175620 | 19 | 315 | 0.0 | 1.6 | 0.00 | 0.00 | 0.00 | 66 | 1004.0 |
| 20260506175121 | 19 | 68 | 1.6 | 3.2 | 0.00 | 0.00 | 0.00 | 66 | 1004.0 |
| 20260506174621 | 20 | 338 | 3.2 | 4.8 | 0.00 | 0.00 | 0.00 | 65 | 1004.0 |
| 20260506174121 | 20 | 338 | 0.0 | 1.6 | 0.00 | 0.00 | 0.00 | 63 | 1004.0 |
| 20260506173621 | 20 | 23 | 1.6 | 4.8 | 0.00 | 0.00 | 0.00 | 64 | 1005.0 |
| 20260506173122 | 20 | 225 | 3.2 | 4.8 | 0.00 | 0.00 | 0.00 | 63 | 1005.0 |
| 20260506172621 | 21 | 203 | 4.8 | 8.0 | 0.00 | 0.00 | 0.00 | 61 | 1005.0 |
| 20260506172120 | 21 | 293 | 3.2 | 4.8 | 0.00 | 0.00 | 0.00 | 62 | 1004.0 |
| 20260506171620 | 21 | 248 | 8.0 | 12.9 | 0.00 | 0.00 | 0.00 | 60 | 1004.0 |
| 20260506171121 | 21 | 113 | 6.4 | 11.3 | 0.00 | 0.00 | 0.00 | 60 | 1004.0 |
| 20260506170620 | 21 | 225 | 0.0 | 1.6 | 0.00 | 0.00 | 0.00 | 62 | 1004.0 |
| 20260506170120 | 20 | 225 | 4.8 | 8.0 | 0.00 | 0.00 | 0.00 | 64 | 1005.0 |
| 20260506165621 | 20 | 225 | 6.4 | 11.3 | 0.00 | 0.00 | 0.00 | 63 | 1005.0 |
| 20260506165120 | 20 | 248 | 3.2 | 4.8 | 0.00 | 0.00 | 0.00 | 64 | 1005.0 |
| 20260506164620 | 20 | 113 | 4.8 | 6.4 | 0.00 | 0.00 | 0.00 | 63 | 1005.0 |
| 20260506164120 | 20 | 315 | 4.8 | 8.0 | 0.00 | 0.00 | 0.00 | 63 | 1005.0 |
| 20260506163621 | 20 | 315 | 8.0 | 9.7 | 0.00 | 0.00 | 0.00 | 63 | 1005.0 |
| 20260506163121 | 20 | 45 | 1.6 | 3.2 | 0.00 | 0.00 | 0.00 | 62 | 1005.0 |
| 20260506162621 | 20 | 293 | 3.2 | 4.8 | 0.00 | 0.00 | 0.00 | 64 | 1005.0 |
| 20260506162121 | 20 | 180 | 4.8 | 4.8 | 0.00 | 0.00 | 0.00 | 64 | 1005.0 |
| 20260506161620 | 20 | 315 | 4.8 | 8.0 | 0.00 | 0.00 | 0.00 | 62 | 1005.0 |
| 20260506161120 | 20 | 68 | 0.0 | 3.2 | 0.00 | 0.00 | 0.00 | 63 | 1005.0 |
| 20260506160620 | 20 | 135 | 4.8 | 6.4 | 0.00 | 0.00 | 0.00 | 62 | 1005.0 |
| 20260506160124 | 20 | 293 | 1.6 | 3.2 | 0.00 | 0.00 | 0.00 | 62 | 1005.0 |
| 20260506155620 | 20 | 225 | 4.8 | 4.8 | 0.00 | 0.00 | 0.00 | 61 | 1005.0 |
| 20260506155120 | 21 | 68 | 3.2 | 4.8 | 0.00 | 0.00 | 0.00 | 60 | 1005.0 |
| 20260506154621 | 21 | 23 | 3.2 | 4.8 | 0.00 | 0.00 | 0.00 | 63 | 1005.0 |
| 20260506154120 | 21 | 90 | 4.8 | 4.8 | 0.00 | 0.00 | 0.00 | 62 | 1006.0 |
| 20260506153621 | 21 | 68 | 6.4 | 8.0 | 0.00 | 0.00 | 0.00 | 59 | 1006.0 |
| 20260506153121 | 21 | 203 | 1.6 | 3.2 | 0.00 | 0.00 | 0.00 | 62 | 1006.0 |
| 20260506152620 | 21 | 90 | 1.6 | 3.2 | 0.00 | 0.00 | 0.00 | 61 | 1006.0 |
| 20260506152120 | 20 | 293 | 1.6 | 3.2 | 0.00 | 0.00 | 0.00 | 62 | 1006.0 |
| 20260506151620 | 20 | 270 | 8.0 | 17.7 | 0.00 | 0.00 | 0.00 | 63 | 1006.0 |
| 20260506151121 | 20 | 203 | 4.8 | 8.0 | 0.00 | 0.00 | 0.00 | 66 | 1006.0 |
| 20260506150620 | 20 | 180 | 4.8 | 9.7 | 0.00 | 0.00 | 0.00 | 63 | 1006.0 |
| 20260506150121 | 20 | 293 | 6.4 | 8.0 | 0.00 | 0.00 | 0.00 | 63 | 1006.0 |
| 20260506145620 | 20 | 248 | 9.7 | 14.5 | 0.00 | 0.00 | 0.00 | 64 | 1006.0 |
| 20260506145120 | 20 | 113 | 8.0 | 9.7 | 0.00 | 0.00 | 0.00 | 63 | 1006.0 |
| 20260506144620 | 20 | 248 | 1.6 | 4.8 | 0.00 | 0.00 | 0.00 | 64 | 1006.0 |
| 20260506144124 | 20 | 338 | 1.6 | 4.8 | 0.00 | 0.00 | 0.00 | 62 | 1006.0 |
| 20260506143620 | 20 | 68 | 3.2 | 4.8 | 0.00 | 0.00 | 0.00 | 63 | 1006.0 |
| 20260506143121 | 20 | 90 | 4.8 | 6.4 | 0.00 | 0.00 | 0.00 | 64 | 1006.0 |
| 20260506142621 | 20 | 293 | 8.0 | 9.7 | 0.00 | 0.00 | 0.00 | 62 | 1006.0 |
| 20260506142121 | 20 | 293 | 4.8 | 6.4 | 0.00 | 0.00 | 0.00 | 63 | 1006.0 |
| 20260506141622 | 20 | 113 | 4.8 | 4.8 | 0.00 | 0.00 | 0.00 | 64 | 1006.0 |
| 20260506141121 | 20 | 0 | 4.8 | 8.0 | 0.00 | 0.00 | 0.00 | 65 | 1006.0 |
| 20260506140621 | 19 | 270 | 3.2 | 4.8 | 0.00 | 0.00 | 0.00 | 66 | 1006.0 |
| 20260506140120 | 19 | 248 | 3.2 | 6.4 | 0.00 | 0.00 | 0.00 | 66 | 1006.0 |
| 20260506135620 | 19 | 113 | 0.0 | 1.6 | 0.00 | 0.00 | 0.00 | 65 | 1005.0 |
| 20260506135120 | 19 | 315 | 4.8 | 4.8 | 0.00 | 0.00 | 0.00 | 66 | 1006.0 |
| 20260506134621 | 19 | 293 | 8.0 | 11.3 | 0.00 | 0.00 | 0.00 | 66 | 1006.0 |
| 20260506134120 | 18 | 315 | 4.8 | 8.0 | 0.00 | 0.00 | 0.00 | 69 | 1006.0 |
| 20260506133621 | 18 | 338 | 3.2 | 4.8 | 0.00 | 0.00 | 0.00 | 69 | 1006.0 |
| 20260506133121 | 18 | 248 | 1.6 | 1.6 | 0.00 | 0.00 | 0.00 | 70 | 1006.0 |
| 20260506132620 | 18 | 315 | 3.2 | 4.8 | 0.00 | 0.00 | 0.00 | 73 | 1006.0 |
| 20260506132121 | 18 | 158 | 8.0 | 11.3 | 0.00 | 0.00 | 0.00 | 72 | 1006.0 |
| 20260506131620 | 17 | 293 | 4.8 | 9.7 | 0.00 | 0.00 | 0.00 | 72 | 1006.0 |
| 20260506131120 | 17 | 113 | 3.2 | 11.3 | 0.00 | 0.00 | 0.00 | 73 | 1006.0 |
| 20260506130620 | 17 | 270 | 11.3 | 12.9 | 0.00 | 0.00 | 0.00 | 74 | 1006.0 |
| 20260506130120 | 17 | 203 | 6.4 | 11.3 | 0.00 | 0.00 | 0.00 | 76 | 1006.0 |
| 20260506125620 | 16 | 68 | 3.2 | 4.8 | 0.00 | 0.00 | 0.00 | 77 | 1006.0 |
| 20260506125120 | 16 | 203 | 8.0 | 9.7 | 0.00 | 0.00 | 0.00 | 77 | 1006.0 |
| 20260506124621 | 16 | 270 | 4.8 | 6.4 | 0.00 | 0.00 | 0.00 | 78 | 1006.0 |
| 20260506124120 | 16 | 270 | 0.0 | 3.2 | 0.00 | 0.00 | 0.00 | 79 | 1006.0 |
| 20260506123620 | 16 | 338 | 3.2 | 4.8 | 0.00 | 0.00 | 0.00 | 78 | 1006.0 |
| 20260506123122 | 16 | 135 | 0.0 | 0.0 | 0.00 | 0.00 | 0.00 | 79 | 1006.0 |
| 20260506122621 | 16 | 180 | 1.6 | 4.8 | 0.00 | 0.00 | 0.00 | 79 | 1006.0 |
| 20260506122120 | 16 | 315 | 6.4 | 9.7 | 0.00 | 0.00 | 0.00 | 79 | 1006.0 |
| 20260506121620 | 16 | 315 | 4.8 | 6.4 | 0.00 | 0.00 | 0.00 | 80 | 1006.0 |
| 20260506121122 | 15 | 45 | 6.4 | 11.3 | 0.00 | 0.00 | 0.00 | 81 | 1006.0 |
| 20260506120620 | 15 | 68 | 4.8 | 6.4 | 0.00 | 0.00 | 0.00 | 82 | 1007.0 |
| 20260506120120 | 15 | 225 | 3.2 | 4.8 | 0.00 | 0.00 | 0.00 | 84 | 1006.0 |
| 20260506115620 | 15 | 293 | 8.0 | 11.3 | 0.00 | 0.00 | 0.00 | 83 | 1007.0 |
| 20260506115120 | 15 | 315 | 3.2 | 8.0 | 0.00 | 0.00 | 0.00 | 82 | 1007.0 |
| 20260506114620 | 15 | 23 | 4.8 | 4.8 | 0.00 | 0.00 | 0.00 | 82 | 1007.0 |
| 20260506114120 | 15 | 203 | 6.4 | 11.3 | 0.00 | 0.00 | 0.00 | 83 | 1007.0 |
| 20260506113620 | 15 | 315 | 1.6 | 4.8 | 0.00 | 0.00 | 0.00 | 82 | 1007.0 |
| 20260506113121 | 15 | 270 | 3.2 | 4.8 | 0.00 | 0.00 | 0.00 | 83 | 1007.0 |
| 20260506112622 | 15 | 225 | 4.8 | 6.4 | 0.00 | 0.00 | 0.00 | 84 | 1007.0 |
| 20260506112120 | 15 | 68 | 1.6 | 1.6 | 0.00 | 0.00 | 0.00 | 86 | 1007.0 |
| 20260506111620 | 14 | 225 | 1.6 | 4.8 | 0.00 | 0.00 | 0.00 | 86 | 1007.0 |
| 20260506111120 | 13 | 225 | 3.2 | 4.8 | 0.00 | 0.00 | 0.00 | 88 | 1007.0 |
| 20260506110620 | 13 | 0 | 1.6 | 3.2 | 0.00 | 0.00 | 0.00 | 88 | 1007.0 |
| 20260506110121 | 13 | 45 | 0.0 | 1.6 | 0.00 | 0.00 | 0.00 | 88 | 1007.0 |
| 20260506105620 | 13 | 113 | 0.0 | 1.6 | 0.00 | 0.00 | 0.00 | 88 | 1007.0 |
| 20260506105120 | 13 | 338 | 4.8 | 6.4 | 0.00 | 0.00 | 0.00 | 88 | 1007.0 |
| 20260506104620 | 13 | 248 | 3.2 | 4.8 | 0.00 | 0.00 | 0.00 | 88 | 1007.0 |
| 20260506104120 | 13 | 315 | 3.2 | 4.8 | 0.00 | 0.00 | 0.00 | 89 | 1007.0 |
| 20260506103621 | 13 | 270 | 3.2 | 4.8 | 0.00 | 0.00 | 0.00 | 89 | 1007.0 |
| 20260506103123 | 13 | 270 | 0.0 | 1.6 | 0.00 | 0.00 | 0.00 | 89 | 1007.0 |
| 20260506102620 | 13 | 338 | 3.2 | 4.8 | 0.00 | 0.00 | 0.00 | 89 | 1007.0 |
| 20260506102121 | 13 | 270 | 0.0 | 0.0 | 0.00 | 0.00 | 0.00 | 89 | 1007.0 |
| 20260506101620 | 13 | 315 | 3.2 | 4.8 | 0.00 | 0.00 | 0.00 | 89 | 1007.0 |
| 20260506101120 | 13 | 45 | 4.8 | 6.4 | 0.00 | 0.00 | 0.00 | 89 | 1007.0 |
| 20260506100622 | 13 | 113 | 0.0 | 0.0 | 0.00 | 0.00 | 0.00 | 89 | 1007.0 |
| 20260506100120 | 13 | 293 | 1.6 | 3.2 | 0.00 | 0.00 | 0.00 | 89 | 1006.0 |
| 20260506095621 | 13 | 0 | 0.0 | 0.0 | 0.00 | 0.00 | 0.00 | 89 | 1007.0 |
| 20260506095123 | 13 | 90 | 0.0 | 0.0 | 0.00 | 0.00 | 0.00 | 88 | 1006.0 |
| 20260506094620 | 13 | 270 | 1.6 | 4.8 | 0.00 | 0.00 | 0.00 | 88 | 1006.0 |
| 20260506094120 | 13 | 23 | 0.0 | 1.6 | 0.00 | 0.00 | 0.00 | 88 | 1006.0 |
| 20260506093620 | 13 | 68 | 1.6 | 4.8 | 0.00 | 0.00 | 0.00 | 88 | 1006.0 |
| 20260506093120 | 13 | 270 | 6.4 | 9.7 | 0.00 | 0.00 | 0.00 | 88 | 1006.0 |
| 20260506092620 | 13 | 338 | 1.6 | 3.2 | 0.00 | 0.00 | 0.00 | 88 | 1006.0 |
| 20260506092120 | 13 | 270 | 0.0 | 0.0 | 0.00 | 0.00 | 0.00 | 88 | 1006.0 |
| 20260506091620 | 13 | 248 | 0.0 | 1.6 | 0.00 | 0.00 | 0.00 | 87 | 1006.0 |
| 20260506091120 | 13 | 315 | 3.2 | 4.8 | 0.00 | 0.00 | 0.00 | 87 | 1006.0 |
| 20260506090620 | 13 | 68 | 1.6 | 4.8 | 0.00 | 0.00 | 0.00 | 87 | 1006.0 |
| 20260506090121 | 13 | 23 | 3.2 | 4.8 | 0.00 | 0.00 | 0.00 | 87 | 1007.0 |
| 20260506085620 | 13 | 68 | 1.6 | 4.8 | 0.00 | 0.00 | 0.00 | 87 | 1007.0 |
| 20260506085120 | 13 | 315 | 3.2 | 4.8 | 0.00 | 0.00 | 0.00 | 87 | 1007.0 |
| 20260506084620 | 13 | 203 | 3.2 | 4.8 | 0.00 | 0.00 | 0.00 | 87 | 1007.0 |
| 20260506084121 | 13 | 135 | 3.2 | 4.8 | 0.00 | 0.00 | 0.00 | 87 | 1007.0 |
| 20260506083620 | 13 | 135 | 0.0 | 3.2 | 0.00 | 0.00 | 0.00 | 87 | 1007.0 |
| 20260506083120 | 13 | 270 | 1.6 | 3.2 | 0.00 | 0.00 | 0.00 | 86 | 1006.0 |
| 20260506082621 | 13 | 158 | 1.6 | 3.2 | 0.00 | 0.00 | 0.00 | 86 | 1006.0 |
| 20260506082119 | 13 | 23 | 3.2 | 4.8 | 0.00 | 0.00 | 0.00 | 86 | 1007.0 |
| 20260506081620 | 13 | 293 | 0.0 | 0.0 | 0.00 | 0.00 | 0.00 | 85 | 1007.0 |
| 20260506081121 | 13 | 315 | 1.6 | 4.8 | 0.00 | 0.00 | 0.00 | 85 | 1007.0 |
| 20260506080620 | 13 | 45 | 0.0 | 0.0 | 0.00 | 0.00 | 0.00 | 84 | 1007.0 |
| 20260506080120 | 14 | 293 | 1.6 | 4.8 | 0.00 | 0.00 | 0.00 | 84 | 1007.0 |
| 20260506073120 | 14 | 338 | 3.2 | 4.8 | 0.00 | 0.00 | 0.00 | 82 | 1006.0 |
| 20260506072620 | 14 | 0 | 4.8 | 8.0 | 0.00 | 0.00 | 0.00 | 82 | 1006.0 |
| 20260506072120 | 14 | 180 | 1.6 | 4.8 | 0.00 | 0.00 | 0.00 | 82 | 1006.0 |
| 20260506071621 | 14 | 68 | 8.0 | 12.9 | 0.00 | 0.00 | 0.00 | 82 | 1006.0 |
| 20260506071120 | 14 | 248 | 0.0 | 0.0 | 0.00 | 0.00 | 0.00 | 82 | 1006.0 |
| 20260506070621 | 14 | 225 | 8.0 | 12.9 | 0.00 | 0.00 | 0.00 | 82 | 1006.0 |
| 20260506070120 | 14 | 45 | 4.8 | 6.4 | 0.00 | 0.00 | 0.00 | 82 | 1006.0 |
| 20260506062120 | 14 | 270 | 3.2 | 4.8 | 0.00 | 0.00 | 0.00 | 80 | 1006.0 |
| 20260506061620 | 14 | 45 | 3.2 | 4.8 | 0.00 | 0.00 | 0.00 | 80 | 1006.0 |
| 20260506061120 | 14 | 68 | 3.2 | 4.8 | 0.00 | 0.00 | 0.00 | 80 | 1006.0 |
| 20260506060620 | 14 | 248 | 8.0 | 11.3 | 0.00 | 0.00 | 0.00 | 79 | 1006.0 |
| 20260506060120 | 14 | 180 | 4.8 | 6.4 | 0.00 | 0.00 | 0.00 | 79 | 1006.0 |
| 20260506051120 | 13 | 113 | 1.6 | 3.2 | 0.00 | 0.00 | 0.00 | 79 | 1007.0 |
| 20260506050620 | 13 | 23 | 0.0 | 0.0 | 0.00 | 0.00 | 0.00 | 79 | 1007.0 |
| 20260506050120 | 13 | 68 | 6.4 | 8.0 | 0.00 | 0.00 | 0.00 | 79 | 1007.0 |
| 20260506045120 | 13 | 338 | 3.2 | 4.8 | 0.00 | 0.00 | 0.00 | 78 | 1007.0 |
| 20260506044621 | 14 | 113 | 0.0 | 1.6 | 0.00 | 0.00 | 0.00 | 77 | 1007.0 |
| 20260506044120 | 14 | 270 | 4.8 | 6.4 | 0.00 | 0.00 | 0.00 | 77 | 1007.0 |
| 20260506043620 | 14 | 68 | 3.2 | 4.8 | 0.00 | 0.00 | 0.00 | 76 | 1007.0 |
| 20260506043121 | 14 | 270 | 8.0 | 14.5 | 0.00 | 0.00 | 0.00 | 76 | 1007.0 |
| 20260506042621 | 14 | 23 | 3.2 | 4.8 | 0.00 | 0.00 | 0.00 | 75 | 1007.0 |
| 20260506042121 | 14 | 23 | 3.2 | 4.8 | 0.00 | 0.00 | 0.00 | 75 | 1007.0 |
| 20260506041621 | 14 | 45 | 1.6 | 4.8 | 0.00 | 0.00 | 0.00 | 75 | 1007.0 |
| 20260506041121 | 14 | 113 | 6.4 | 8.0 | 0.00 | 0.00 | 0.00 | 74 | 1007.0 |
| 20260506040620 | 14 | 23 | 4.8 | 6.4 | 0.00 | 0.00 | 0.00 | 74 | 1007.0 |
| 20260506040121 | 14 | 248 | 3.2 | 4.8 | 0.00 | 0.00 | 0.00 | 74 | 1007.0 |
| 20260506035620 | 14 | 90 | 3.2 | 4.8 | 0.00 | 0.00 | 0.00 | 74 | 1007.0 |
| 20260506035120 | 14 | 113 | 4.8 | 6.4 | 0.00 | 0.00 | 0.00 | 74 | 1007.0 |
| 20260506034620 | 14 | 338 | 1.6 | 3.2 | 0.00 | 0.00 | 0.00 | 74 | 1007.0 |
| 20260506034121 | 14 | 338 | 4.8 | 4.8 | 0.00 | 0.00 | 0.00 | 74 | 1007.0 |
| 20260506033621 | 14 | 270 | 0.0 | 1.6 | 0.00 | 0.00 | 0.00 | 73 | 1007.0 |
| 20260506033120 | 14 | 248 | 1.6 | 3.2 | 0.00 | 0.00 | 0.00 | 73 | 1007.0 |
| 20260506032620 | 14 | 293 | 4.8 | 4.8 | 0.00 | 0.00 | 0.00 | 73 | 1007.0 |
| 20260506032121 | 14 | 90 | 4.8 | 6.4 | 0.00 | 0.00 | 0.00 | 73 | 1007.0 |
| 20260506031620 | 14 | 225 | 0.0 | 1.6 | 0.00 | 0.00 | 0.00 | 73 | 1007.0 |